Home   Weather   Billings   Past weeks

Flag for USA Past Weather in Billings, Montana, USA — Yesterday and Last 2 Weeks

Now
74 °F

Passing clouds.


Feels Like: 76 °F
Forecast: 58 / 91 °F
Wind: No wind

Location: Billings Logan International Airport

Current Time: Aug 18, 2017 at 1:23:24 am

Latest Report: Aug 17, 2017 at 11:53 pm


Visibility: 10 mi

Pressure: 29.96 "Hg (26.86 "Hg at 946m altitude)

Humidity: 23%

Dew Point: 34 °F

Location of BillingsLocation

Past Weather in Billings — Graph

°F

Billings Temperature Yesterday

Maximum temperature yesterday: 87 °F (at 3:53 pm)
Minimum temperature yesterday: 62 °F (at 5:53 am)
Average temperature yesterday: 74 °F

High & Low Weather Summary for the Past Weeks

 TemperatureHumidityPressure
High88 °F (Aug 4, 3:53 pm)84% (Aug 5, 6:53 am)30.32 "Hg (Aug 5, 6:53 am)
Low53 °F (Aug 3, 5:53 am)13% (Aug 17, 5:53 pm)29.69 "Hg (Aug 13, 5:53 pm)
Average69 °F44%29.97 "Hg
* Reported Aug 2 11:53 pm — Aug 17 11:53 pm, Billings. Weather by CustomWeather, © 2017

Note: Actual official high and low records may vary slightly from our data, if they occured in-between our weather recording intervals... More about our weather records

Advertising

Billings Weather History for the Previous 24 Hours

Scroll right to see more
 ConditionsComfort  
Time TempWeatherWind HumidityBarometerVisibility
11:53 pm
Thu, Aug 17
74 °FPassing clouds.No wind23%29.96 "Hg10 mi
10:53 pm72 °FPassing clouds.No wind25%29.96 "Hg10 mi
9:53 pm75 °FPassing clouds.6 mph22%29.94 "Hg10 mi
8:53 pm76 °FOvercast.8 mph22%29.92 "Hg10 mi
7:53 pm79 °FScattered clouds.9 mph18%29.90 "Hg10 mi
6:53 pm83 °FScattered clouds.10 mph15%29.88 "Hg10 mi
5:53 pm86 °FPassing clouds.18 mph13%29.87 "Hg10 mi
4:53 pm86 °FScattered clouds.14 mph14%29.86 "Hg10 mi
3:53 pm87 °FScattered clouds.16 mph14%29.87 "Hg10 mi
2:53 pm86 °FPassing clouds.17 mph14%29.87 "Hg10 mi
1:53 pm85 °FPassing clouds.5 mph15%29.88 "Hg10 mi
12:53 pm81 °FPassing clouds.7 mph20%29.90 "Hg10 mi
11:53 am73 °FPartly sunny.8 mph36%29.92 "Hg10 mi
10:53 am70 °FMostly cloudy.10 mph37%29.93 "Hg10 mi
9:53 am68 °FMostly cloudy.12 mph36%29.91 "Hg10 mi
8:53 am65 °FMostly cloudy.13 mph37%29.91 "Hg10 mi
7:53 am65 °FPartly sunny.15 mph34%29.90 "Hg10 mi
6:53 am64 °FPartly sunny.9 mph33%29.88 "Hg10 mi
5:53 am62 °FPartly cloudy.6 mph38%29.86 "Hg10 mi
4:53 am65 °FPartly cloudy.5 mph28%29.84 "Hg10 mi
3:53 am65 °FMostly cloudy.8 mph44%29.83 "Hg10 mi
2:53 am67 °FPartly cloudy.3 mph36%29.82 "Hg10 mi
1:53 am69 °FClear.No wind35%29.82 "Hg10 mi
Weather by CustomWeather, © 2017

See weather overviewHow to use our weather pages